STARLINK-32702

Last updated on Wed Jan 29 2025 00:02:04 GMT+0000 (Coordinated Universal Time)

1 62432U 24251A 25028.56907128 -.00051499 00000+0 -93703-3 0 9990 2 62432 53.1604 66.2169 0001015 21.5168 338.5883 15.48911905 5790
UTC large
Height (km)
Speed (km/s)
/
Latitude / Longitude
Inclination (degrees)
Orbital Period (minutes)
Azimuth
Elevation
Range (km)
Doppler Factor

Next 0 passes for location: London (51.5072 / 0.1276)

Sorry there are no passes over London.